Powrót do katalogu

TIANMU-1 21

AktywnyPogodaSSO
NORAD 58662·PAYLOAD·🇨🇳 China

Wystrzelony Dec 27, 2023 z Jiuquan Satellite Launch Center

Loading…

Następne Przeloty (najbliższe 24 godziny)

TLE

ŚwieżeSource: Space-Track

Epoka: Sep 14, 2026, 13:46 UTC

1 58662U 23208C   26257.57369477  .00007759  00000-0  21981-3 0  9994
2 58662  97.4590  18.2623 0006778   8.5355 351.6003 15.36533331151287

Śledź TIANMU-1 21 w czasie rzeczywistym z AllMySat

Download on the App Store